TimeCST,TemperatureF,Dew PointF,Humidity,Sea Level PressureIn,VisibilityMPH,Wind Direction,Wind SpeedMPH,Gust SpeedMPH,PrecipitationIn,Events,Conditions,WindDirDegrees,DateUTC
12:53 AM,30.9,27.0,85,30.33,10.0,North,8.1,-,N/A,,Clear,350,2013-12-25 06:53:00
1:53 AM,26.1,24.1,92,30.34,8.0,NNW,5.8,-,N/A,,Clear,330,2013-12-25 07:53:00
2:53 AM,26.1,24.1,92,30.35,7.0,Calm,Calm,-,N/A,,Clear,0,2013-12-25 08:53:00
3:53 AM,21.9,19.9,92,30.37,6.0,West,4.6,-,N/A,,Clear,280,2013-12-25 09:53:00
4:53 AM,23.0,21.0,92,30.36,10.0,West,8.1,-,N/A,,Clear,260,2013-12-25 10:53:00
5:53 AM,21.0,19.0,92,30.39,10.0,West,6.9,-,N/A,,Clear,260,2013-12-25 11:53:00
6:53 AM,19.9,18.0,92,30.39,10.0,WSW,8.1,-,N/A,,Clear,240,2013-12-25 12:53:00
7:53 AM,19.0,17.1,92,30.40,10.0,SW,9.2,-,N/A,,Clear,230,2013-12-25 13:53:00
8:53 AM,24.1,21.9,91,30.40,10.0,WSW,8.1,-,N/A,,Clear,240,2013-12-25 14:53:00
9:53 AM,30.0,26.1,85,30.41,10.0,West,6.9,-,N/A,,Clear,260,2013-12-25 15:53:00
10:53 AM,39.9,26.1,58,30.41,10.0,NW,12.7,-,N/A,,Clear,310,2013-12-25 16:53:00
11:53 AM,43.0,25.0,49,30.40,10.0,NW,15.0,-,N/A,,Clear,320,2013-12-25 17:53:00
12:53 PM,46.9,23.0,39,30.38,10.0,NNW,17.3,-,N/A,,Clear,340,2013-12-25 18:53:00
1:53 PM,48.0,19.9,33,30.37,10.0,NNW,15.0,-,N/A,,Clear,330,2013-12-25 19:53:00
2:53 PM,48.0,19.9,33,30.36,10.0,NNW,16.1,-,N/A,,Clear,340,2013-12-25 20:53:00
3:53 PM,46.0,19.0,34,30.38,10.0,NW,15.0,-,N/A,,Clear,320,2013-12-25 21:53:00
4:53 PM,42.1,19.0,40,30.39,10.0,NNW,8.1,-,N/A,,Clear,330,2013-12-25 22:53:00
5:53 PM,35.1,18.0,50,30.41,10.0,NNW,6.9,-,N/A,,Clear,330,2013-12-25 23:53:00
6:53 PM,35.1,19.0,52,30.41,10.0,NW,4.6,-,N/A,,Clear,310,2013-12-26 00:53:00
7:53 PM,30.9,18.0,59,30.41,10.0,SSW,5.8,-,N/A,,Clear,210,2013-12-26 01:53:00
8:53 PM,27.0,17.1,66,30.41,10.0,SW,8.1,-,N/A,,Clear,220,2013-12-26 02:53:00
9:53 PM,24.1,16.0,71,30.40,10.0,SSW,8.1,-,N/A,,Clear,210,2013-12-26 03:53:00
10:53 PM,24.1,16.0,71,30.37,10.0,SW,8.1,-,N/A,,Clear,220,2013-12-26 04:53:00
11:53 PM,23.0,16.0,74,30.36,10.0,SSW,10.4,-,N/A,,Clear,210,2013-12-26 05:53:00